| time (UTC) | temp F | wind direction | speed knots | gust knots | rain 1hr in | rain 24hr in | rain mn in | humidity % | barometer mb |
| 20260507073006 | 67 | 218 | 0.9 | 1.7 | 0.00 | 0.00 | 0.00 | 73 | 1122.7 |
| 20260507072503 | 67 | 231 | 1.7 | 1.7 | 0.00 | 0.00 | 0.00 | 73 | 1122.5 |
| 20260507072000 | 67 | 215 | 1.7 | 4.3 | 0.00 | 0.00 | 0.00 | 73 | 1122.4 |
| 20260507071457 | 68 | 215 | 0.9 | 1.7 | 0.00 | 0.00 | 0.00 | 72 | 1122.4 |
| 20260507070954 | 68 | 191 | 1.7 | 2.6 | 0.00 | 0.00 | 0.00 | 72 | 1122.7 |
| 20260507070451 | 68 | 218 | 1.7 | 2.6 | 0.00 | 0.00 | 0.00 | 71 | 1122.6 |
| 20260507065948 | 68 | 235 | 0.9 | 1.7 | 0.00 | 0.00 | 0.00 | 71 | 1122.9 |
| 20260507065444 | 68 | 190 | 2.6 | 2.6 | 0.00 | 0.00 | 0.00 | 71 | 1122.8 |
| 20260507064942 | 68 | 233 | 0.9 | 1.7 | 0.00 | 0.00 | 0.00 | 71 | 1122.6 |
| 20260507064440 | 68 | 225 | 0.9 | 0.9 | 0.00 | 0.00 | 0.00 | 70 | 1123.0 |
| 20260507063937 | 69 | 228 | 0.9 | 2.6 | 0.00 | 0.00 | 0.00 | 70 | 1122.8 |
| 20260507063429 | 69 | 245 | 0.0 | 1.7 | 0.00 | 0.00 | 0.00 | 70 | 1122.9 |
| 20260507062926 | 69 | 228 | 0.9 | 1.7 | 0.00 | 0.00 | 0.00 | 69 | 1122.9 |
| 20260507062424 | 69 | 225 | 0.9 | 1.7 | 0.00 | 0.00 | 0.00 | 69 | 1122.8 |
| 20260507061920 | 69 | 158 | 1.7 | 2.6 | 0.00 | 0.00 | 0.00 | 69 | 1122.9 |
| 20260507061418 | 69 | 241 | 0.0 | 0.9 | 0.00 | 0.00 | 0.00 | 68 | 1122.9 |
| 20260507060916 | 69 | 219 | 0.0 | 0.9 | 0.00 | 0.00 | 0.00 | 68 | 1123.1 |
| 20260507060412 | 70 | 220 | 0.9 | 2.6 | 0.00 | 0.00 | 0.00 | 68 | 1123.0 |
| 20260507055909 | 70 | 255 | 1.7 | 2.6 | 0.00 | 0.00 | 0.00 | 67 | 1123.0 |
| 20260507055404 | 70 | 222 | 1.7 | 1.7 | 0.00 | 0.00 | 0.00 | 67 | 1122.7 |
| 20260507054902 | 70 | 214 | 0.9 | 2.6 | 0.00 | 0.00 | 0.00 | 67 | 1122.9 |
| 20260507054358 | 70 | 189 | 2.6 | 2.6 | 0.00 | 0.00 | 0.00 | 67 | 1122.8 |
| 20260507053855 | 70 | 147 | 0.9 | 2.6 | 0.00 | 0.00 | 0.00 | 66 | 1123.0 |
| 20260507053353 | 70 | 254 | 0.9 | 2.6 | 0.00 | 0.00 | 0.00 | 65 | 1122.9 |
| 20260507052851 | 71 | 184 | 2.6 | 2.6 | 0.00 | 0.00 | 0.00 | 65 | 1123.1 |
| 20260507052348 | 71 | 233 | 2.6 | 4.3 | 0.00 | 0.00 | 0.00 | 64 | 1123.1 |
| 20260507051845 | 71 | 165 | 0.9 | 1.7 | 0.00 | 0.00 | 0.00 | 61 | 1123.0 |
| 20260507051343 | 72 | 237 | 0.9 | 2.6 | 0.00 | 0.00 | 0.00 | 60 | 1122.8 |
| 20260507050839 | 72 | 222 | 1.7 | 4.3 | 0.00 | 0.00 | 0.00 | 60 | 1122.7 |
| 20260507050336 | 72 | 232 | 3.5 | 4.3 | 0.00 | 0.00 | 0.00 | 59 | 1122.7 |
| 20260507045833 | 72 | 213 | 0.9 | 4.3 | 0.00 | 0.00 | 0.00 | 59 | 1122.8 |
| 20260507045329 | 72 | 196 | 1.7 | 2.6 | 0.00 | 0.00 | 0.00 | 59 | 1122.9 |
| 20260507044826 | 72 | 211 | 1.7 | 1.7 | 0.00 | 0.00 | 0.00 | 59 | 1122.7 |
| 20260507044323 | 72 | 214 | 0.9 | 2.6 | 0.00 | 0.00 | 0.00 | 58 | 1123.0 |
| 20260507043819 | 72 | 222 | 0.9 | 2.6 | 0.00 | 0.00 | 0.00 | 58 | 1122.9 |
| 20260507043316 | 73 | 254 | 1.7 | 4.3 | 0.00 | 0.00 | 0.00 | 58 | 1122.8 |
| 20260507042812 | 73 | 213 | 3.5 | 4.3 | 0.00 | 0.00 | 0.00 | 58 | 1122.7 |
| 20260507042308 | 73 | 195 | 1.7 | 1.7 | 0.00 | 0.00 | 0.00 | 58 | 1122.7 |
| 20260507041805 | 73 | 228 | 0.9 | 0.9 | 0.00 | 0.00 | 0.00 | 57 | 1122.4 |
| 20260507041301 | 73 | 196 | 1.7 | 1.7 | 0.00 | 0.00 | 0.00 | 57 | 1122.1 |
| 20260507040758 | 73 | 224 | 0.9 | 1.7 | 0.00 | 0.00 | 0.00 | 56 | 1122.2 |
| 20260507040254 | 73 | 244 | 1.7 | 1.7 | 0.00 | 0.00 | 0.00 | 56 | 1122.4 |
| 20260507035751 | 74 | 187 | 0.9 | 1.7 | 0.00 | 0.00 | 0.00 | 54 | 1122.4 |
| 20260507035246 | 74 | 170 | 2.6 | 4.3 | 0.00 | 0.00 | 0.00 | 54 | 1122.1 |
| 20260507034744 | 75 | 107 | 1.7 | 2.6 | 0.00 | 0.00 | 0.00 | 51 | 1122.2 |
| 20260507034240 | 75 | 155 | 1.7 | 4.3 | 0.00 | 0.00 | 0.00 | 47 | 1122.2 |
| 20260507033739 | 76 | 237 | 2.6 | 6.1 | 0.00 | 0.00 | 0.00 | 45 | 1121.8 |
| 20260507033236 | 76 | 228 | 0.9 | 1.7 | 0.00 | 0.00 | 0.00 | 42 | 1121.9 |
| 20260507032734 | 77 | 185 | 1.7 | 2.6 | 0.00 | 0.00 | 0.00 | 41 | 1121.5 |
| 20260507032229 | 77 | 207 | 1.7 | 6.1 | 0.00 | 0.00 | 0.00 | 41 | 1121.6 |
| 20260507031726 | 78 | 230 | 1.7 | 2.6 | 0.00 | 0.00 | 0.00 | 40 | 1121.4 |
| 20260507031223 | 78 | 233 | 0.9 | 2.6 | 0.00 | 0.00 | 0.00 | 41 | 1121.4 |
| 20260507030720 | 78 | 235 | 0.9 | 2.6 | 0.00 | 0.00 | 0.00 | 41 | 1121.1 |
| 20260507030217 | 78 | 243 | 0.9 | 1.7 | 0.00 | 0.00 | 0.00 | 41 | 1121.1 |
| 20260507025714 | 78 | 265 | 2.6 | 4.3 | 0.00 | 0.00 | 0.00 | 40 | 1120.9 |
| 20260507025211 | 78 | 202 | 0.9 | 2.6 | 0.00 | 0.00 | 0.00 | 40 | 1121.0 |
| 20260507024709 | 78 | 199 | 1.7 | 5.2 | 0.00 | 0.00 | 0.00 | 40 | 1121.0 |
| 20260507024206 | 79 | 231 | 1.7 | 4.3 | 0.00 | 0.00 | 0.00 | 40 | 1120.8 |
| 20260507023701 | 79 | 229 | 1.7 | 6.1 | 0.00 | 0.00 | 0.00 | 40 | 1120.7 |
| 20260507023159 | 79 | 233 | 1.7 | 2.6 | 0.00 | 0.00 | 0.00 | 40 | 1120.4 |
| 20260507022656 | 79 | 239 | 2.6 | 4.3 | 0.00 | 0.00 | 0.00 | 40 | 1120.8 |
| 20260507022152 | 79 | 236 | 2.6 | 4.3 | 0.00 | 0.00 | 0.00 | 40 | 1120.3 |
| 20260507021648 | 79 | 226 | 2.6 | 4.3 | 0.00 | 0.00 | 0.00 | 40 | 1120.2 |
| 20260507021143 | 79 | 250 | 2.6 | 2.6 | 0.00 | 0.00 | 0.00 | 39 | 1120.4 |
| 20260507020642 | 79 | 219 | 1.7 | 2.6 | 0.00 | 0.00 | 0.00 | 38 | 1120.3 |
| 20260507020138 | 79 | 168 | 2.6 | 2.6 | 0.00 | 0.00 | 0.00 | 38 | 1120.1 |
| 20260507015637 | 80 | 228 | 0.9 | 1.7 | 0.00 | 0.00 | 0.00 | 38 | 1120.0 |
| 20260507015134 | 80 | 208 | 0.9 | 1.7 | 0.00 | 0.00 | 0.00 | 36 | 1120.0 |
| 20260507014630 | 80 | 214 | 2.6 | 2.6 | 0.00 | 0.00 | 0.00 | 35 | 1119.8 |
| 20260507014126 | 80 | 213 | 2.6 | 4.3 | 0.00 | 0.00 | 0.00 | 34 | 1119.9 |
| 20260507013623 | 80 | 232 | 2.6 | 4.3 | 0.00 | 0.00 | 0.00 | 33 | 1119.7 |
| 20260507013120 | 80 | 193 | 1.7 | 4.3 | 0.00 | 0.00 | 0.00 | 33 | 1119.7 |
| 20260507012617 | 81 | 218 | 1.7 | 5.2 | 0.00 | 0.00 | 0.00 | 33 | 1119.8 |
| 20260507012113 | 81 | 192 | 0.9 | 4.3 | 0.00 | 0.00 | 0.00 | 33 | 1119.7 |
| 20260507011611 | 81 | 222 | 2.6 | 4.3 | 0.00 | 0.00 | 0.00 | 33 | 1119.6 |
| 20260507011107 | 81 | 236 | 2.6 | 4.3 | 0.00 | 0.00 | 0.00 | 33 | 1119.4 |
| 20260507010602 | 82 | 218 | 3.5 | 6.1 | 0.00 | 0.00 | 0.00 | 32 | 1119.3 |
| 20260507010059 | 82 | 247 | 1.7 | 6.1 | 0.00 | 0.00 | 0.00 | 32 | 1119.3 |
| 20260507005556 | 82 | 192 | 3.5 | 6.1 | 0.00 | 0.00 | 0.00 | 32 | 1119.2 |
| 20260507005052 | 82 | 243 | 2.6 | 7.8 | 0.00 | 0.00 | 0.00 | 32 | 1119.5 |
| 20260507004549 | 82 | 218 | 5.2 | 6.1 | 0.00 | 0.00 | 0.00 | 32 | 1119.2 |
| 20260507004046 | 82 | 239 | 4.3 | 7.0 | 0.00 | 0.00 | 0.00 | 32 | 1119.2 |
| 20260507003542 | 83 | 181 | 2.6 | 8.7 | 0.00 | 0.00 | 0.00 | 32 | 1119.1 |
| 20260507003037 | 83 | 295 | 2.6 | 6.1 | 0.00 | 0.00 | 0.00 | 31 | 1119.2 |
| 20260507002535 | 84 | 292 | 1.7 | 7.0 | 0.00 | 0.00 | 0.00 | 30 | 1119.1 |
| 20260507002031 | 84 | 231 | 1.7 | 4.3 | 0.00 | 0.00 | 0.00 | 30 | 1119.1 |
| 20260507001527 | 84 | 275 | 1.7 | 7.0 | 0.00 | 0.00 | 0.00 | 30 | 1119.0 |
| 20260507001025 | 84 | 209 | 4.3 | 9.6 | 0.00 | 0.00 | 0.00 | 30 | 1119.0 |
| 20260507000520 | 84 | 196 | 5.2 | 9.6 | 0.00 | 0.00 | 0.00 | 30 | 1119.1 |
| 20260507000016 | 85 | 194 | 4.3 | 11.3 | 0.00 | 0.00 | 0.00 | 30 | 1118.9 |
| 20260506235514 | 85 | 254 | 4.3 | 7.0 | 0.00 | 0.00 | 0.00 | 30 | 1118.7 |
| 20260506235009 | 86 | 206 | 2.6 | 7.0 | 0.00 | 0.00 | 0.00 | 29 | 1118.9 |
| 20260506234507 | 86 | 205 | 4.3 | 6.1 | 0.00 | 0.00 | 0.00 | 29 | 1118.7 |
| 20260506234004 | 86 | 213 | 6.1 | 7.8 | 0.00 | 0.00 | 0.00 | 29 | 1118.9 |
| 20260506233500 | 87 | 190 | 3.5 | 7.8 | 0.00 | 0.00 | 0.00 | 29 | 1118.9 |
| 20260506232957 | 87 | 236 | 3.5 | 7.0 | 0.00 | 0.00 | 0.00 | 29 | 1118.4 |
| 20260506232454 | 87 | 234 | 3.5 | 8.7 | 0.00 | 0.00 | 0.00 | 28 | 1118.3 |
| 20260506231949 | 87 | 316 | 4.3 | 6.1 | 0.00 | 0.00 | 0.00 | 28 | 1118.3 |
| 20260506231447 | 87 | 234 | 3.5 | 6.1 | 0.00 | 0.00 | 0.00 | 29 | 1118.5 |
| 20260506230944 | 87 | 238 | 1.7 | 6.1 | 0.00 | 0.00 | 0.00 | 29 | 1118.4 |
| 20260506230440 | 87 | 292 | 3.5 | 7.8 | 0.00 | 0.00 | 0.00 | 29 | 1118.5 |
| 20260506225937 | 88 | 171 | 1.7 | 5.2 | 0.00 | 0.00 | 0.00 | 29 | 1118.5 |
| 20260506225434 | 87 | 238 | 5.2 | 8.7 | 0.00 | 0.00 | 0.00 | 29 | 1118.3 |
| 20260506224931 | 89 | 266 | 3.5 | 7.0 | 0.00 | 0.00 | 0.00 | 28 | 1118.4 |
| 20260506224428 | 88 | 215 | 2.6 | 6.1 | 0.00 | 0.00 | 0.00 | 28 | 1118.4 |
| 20260506223925 | 89 | 231 | 4.3 | 6.1 | 0.00 | 0.00 | 0.00 | 29 | 1118.6 |
| 20260506223420 | 89 | 277 | 3.5 | 7.0 | 0.00 | 0.00 | 0.00 | 29 | 1118.5 |
| 20260506222918 | 89 | 248 | 1.7 | 5.2 | 0.00 | 0.00 | 0.00 | 28 | 1118.7 |
| 20260506222414 | 89 | 178 | 2.6 | 8.7 | 0.00 | 0.00 | 0.00 | 29 | 1118.6 |
| 20260506221911 | 89 | 231 | 2.6 | 5.2 | 0.00 | 0.00 | 0.00 | 29 | 1118.7 |
| 20260506221408 | 89 | 255 | 2.6 | 7.0 | 0.00 | 0.00 | 0.00 | 29 | 1118.6 |
| 20260506220906 | 89 | 250 | 6.1 | 8.7 | 0.00 | 0.00 | 0.00 | 29 | 1118.7 |
| 20260506220401 | 91 | 267 | 4.3 | 11.3 | 0.00 | 0.00 | 0.00 | 29 | 1118.9 |
| 20260506215853 | 89 | 263 | 2.6 | 6.1 | 0.00 | 0.00 | 0.00 | 29 | 1118.7 |
| 20260506215348 | 89 | 244 | 5.2 | 7.8 | 0.00 | 0.00 | 0.00 | 30 | 1119.0 |
| 20260506214845 | 89 | 260 | 2.6 | 7.0 | 0.00 | 0.00 | 0.00 | 30 | 1118.9 |
| 20260506214342 | 89 | 251 | 4.3 | 7.0 | 0.00 | 0.00 | 0.00 | 30 | 1119.0 |
| 20260506213840 | 88 | 132 | 3.5 | 6.1 | 0.00 | 0.00 | 0.00 | 31 | 1119.0 |
| 20260506213337 | 89 | 353 | 4.3 | 6.1 | 0.00 | 0.00 | 0.00 | 31 | 1119.1 |
| 20260506212833 | 90 | 232 | 1.7 | 4.3 | 0.00 | 0.00 | 0.00 | 30 | 1119.1 |
| 20260506212329 | 88 | 220 | 3.5 | 5.2 | 0.00 | 0.00 | 0.00 | 32 | 1119.1 |
| 20260506211819 | 90 | 277 | 3.5 | 6.1 | 0.00 | 0.00 | 0.00 | 30 | 1119.1 |
| 20260506211315 | 90 | 271 | 2.6 | 7.8 | 0.00 | 0.00 | 0.00 | 30 | 1119.2 |
| 20260506210812 | 89 | 275 | 1.7 | 5.2 | 0.00 | 0.00 | 0.00 | 31 | 1119.1 |
| 20260506210309 | 90 | 238 | 3.5 | 7.8 | 0.00 | 0.00 | 0.00 | 31 | 1119.1 |
| 20260506205807 | 90 | 264 | 3.5 | 4.3 | 0.00 | 0.00 | 0.00 | 31 | 1119.1 |
| 20260506205305 | 90 | 226 | 2.6 | 6.1 | 0.00 | 0.00 | 0.00 | 31 | 1119.3 |
| 20260506204758 | 89 | 271 | 5.2 | 7.0 | 0.00 | 0.00 | 0.00 | 31 | 1119.3 |
| 20260506204257 | 88 | 187 | 2.6 | 7.0 | 0.00 | 0.00 | 0.00 | 33 | 1119.4 |
| 20260506203754 | 88 | 287 | 0.9 | 7.8 | 0.00 | 0.00 | 0.00 | 33 | 1119.7 |
| 20260506203251 | 89 | 230 | 4.3 | 8.7 | 0.00 | 0.00 | 0.00 | 32 | 1119.5 |
| 20260506202748 | 89 | 234 | 2.6 | 4.3 | 0.00 | 0.00 | 0.00 | 32 | 1119.7 |
| 20260506202244 | 88 | 255 | 1.7 | 5.2 | 0.00 | 0.00 | 0.00 | 33 | 1119.8 |
| 20260506201741 | 89 | 86 | 1.7 | 5.2 | 0.00 | 0.00 | 0.00 | 33 | 1119.8 |
| 20260506201238 | 88 | 211 | 0.9 | 4.3 | 0.00 | 0.00 | 0.00 | 34 | 1119.8 |
| 20260506200735 | 88 | 259 | 4.3 | 6.1 | 0.00 | 0.00 | 0.00 | 34 | 1120.1 |
| 20260506200231 | 89 | 255 | 3.5 | 5.2 | 0.00 | 0.00 | 0.00 | 34 | 1120.1 |
| 20260506195728 | 89 | 248 | 1.7 | 6.1 | 0.00 | 0.00 | 0.00 | 34 | 1120.3 |
| 20260506195224 | 87 | 318 | 2.6 | 4.3 | 0.00 | 0.00 | 0.00 | 35 | 1120.1 |
| 20260506194721 | 86 | 262 | 4.3 | 5.2 | 0.00 | 0.00 | 0.00 | 37 | 1120.1 |
| 20260506194218 | 86 | 221 | 2.6 | 5.2 | 0.00 | 0.00 | 0.00 | 37 | 1120.3 |
| 20260506193716 | 89 | 190 | 4.3 | 6.1 | 0.00 | 0.00 | 0.00 | 35 | 1120.5 |
| 20260506193212 | 88 | 292 | 1.7 | 7.0 | 0.00 | 0.00 | 0.00 | 36 | 1120.7 |
| 20260506192710 | 87 | 229 | 3.5 | 7.0 | 0.00 | 0.00 | 0.00 | 37 | 1120.7 |
| 20260506192206 | 86 | 272 | 2.6 | 5.2 | 0.00 | 0.00 | 0.00 | 37 | 1120.8 |
| 20260506191703 | 86 | 205 | 1.7 | 6.1 | 0.00 | 0.00 | 0.00 | 39 | 1121.0 |
| 20260506191159 | 85 | 188 | 1.7 | 8.7 | 0.00 | 0.00 | 0.00 | 40 | 1121.1 |
| 20260506190656 | 87 | 240 | 2.6 | 2.6 | 0.00 | 0.00 | 0.00 | 37 | 1121.0 |
| 20260506190153 | 86 | 260 | 2.6 | 7.0 | 0.00 | 0.00 | 0.00 | 39 | 1121.2 |
| 20260506185650 | 86 | 272 | 6.1 | 7.0 | 0.00 | 0.00 | 0.00 | 39 | 1121.5 |
| 20260506185146 | 86 | 209 | 1.7 | 4.3 | 0.00 | 0.00 | 0.00 | 39 | 1121.4 |
| 20260506184644 | 87 | 248 | 2.6 | 4.3 | 0.00 | 0.00 | 0.00 | 37 | 1121.6 |
| 20260506184141 | 86 | 211 | 3.5 | 5.2 | 0.00 | 0.00 | 0.00 | 38 | 1121.7 |
| 20260506183637 | 86 | 224 | 0.9 | 2.6 | 0.00 | 0.00 | 0.00 | 37 | 1121.6 |
| 20260506183133 | 85 | 287 | 0.9 | 2.6 | 0.00 | 0.00 | 0.00 | 40 | 1121.6 |
| 20260506182631 | 85 | 314 | 2.6 | 6.1 | 0.00 | 0.00 | 0.00 | 41 | 1121.6 |
| 20260506182128 | 84 | 184 | 2.6 | 7.0 | 0.00 | 0.00 | 0.00 | 43 | 1121.7 |
| 20260506181626 | 87 | 241 | 2.6 | 2.6 | 0.00 | 0.00 | 0.00 | 39 | 1121.8 |
| 20260506181123 | 86 | 246 | 0.0 | 0.9 | 0.00 | 0.00 | 0.00 | 41 | 1121.9 |
| 20260506180619 | 84 | 244 | 0.0 | 1.7 | 0.00 | 0.00 | 0.00 | 44 | 1121.7 |
| 20260506180116 | 85 | 182 | 2.6 | 4.3 | 0.00 | 0.00 | 0.00 | 44 | 1122.0 |
| 20260506175612 | 85 | 196 | 1.7 | 4.3 | 0.00 | 0.00 | 0.00 | 43 | 1121.8 |
| 20260506175108 | 84 | 256 | 1.7 | 7.0 | 0.00 | 0.00 | 0.00 | 44 | 1122.0 |
| 20260506174607 | 84 | 212 | 2.6 | 4.3 | 0.00 | 0.00 | 0.00 | 45 | 1122.1 |
| 20260506174103 | 84 | 265 | 1.7 | 5.2 | 0.00 | 0.00 | 0.00 | 44 | 1122.0 |
| 20260506173601 | 84 | 236 | 0.0 | 1.7 | 0.00 | 0.00 | 0.00 | 45 | 1122.1 |
| 20260506173058 | 84 | 271 | 0.9 | 1.7 | 0.00 | 0.00 | 0.00 | 45 | 1122.5 |
| 20260506172555 | 83 | 167 | 3.5 | 5.2 | 0.00 | 0.00 | 0.00 | 45 | 1122.4 |
| 20260506172051 | 82 | 271 | 1.7 | 4.3 | 0.00 | 0.00 | 0.00 | 46 | 1122.5 |
| 20260506171549 | 81 | 209 | 1.7 | 6.1 | 0.00 | 0.00 | 0.00 | 48 | 1122.5 |
| 20260506171046 | 82 | 213 | 3.5 | 5.2 | 0.00 | 0.00 | 0.00 | 48 | 1122.6 |
| 20260506170543 | 82 | 294 | 2.6 | 5.2 | 0.00 | 0.00 | 0.00 | 47 | 1122.5 |
| 20260506170035 | 82 | 227 | 3.5 | 5.2 | 0.00 | 0.00 | 0.00 | 47 | 1122.7 |
| 20260506165533 | 82 | 262 | 0.9 | 5.2 | 0.00 | 0.00 | 0.00 | 48 | 1122.7 |
| 20260506165029 | 82 | 263 | 2.6 | 2.6 | 0.00 | 0.00 | 0.00 | 47 | 1122.6 |
| 20260506164527 | 81 | 226 | 4.3 | 5.2 | 0.00 | 0.00 | 0.00 | 46 | 1122.8 |
| 20260506164024 | 80 | 149 | 0.9 | 4.3 | 0.00 | 0.00 | 0.00 | 47 | 1122.8 |
| 20260506163520 | 80 | 259 | 0.9 | 2.6 | 0.00 | 0.00 | 0.00 | 48 | 1123.1 |
| 20260506163016 | 80 | 119 | 2.6 | 4.3 | 0.00 | 0.00 | 0.00 | 47 | 1123.2 |
| 20260506162512 | 80 | 258 | 0.9 | 0.9 | 0.00 | 0.00 | 0.00 | 46 | 1122.9 |
| 20260506162009 | 80 | 237 | 1.7 | 4.3 | 0.00 | 0.00 | 0.00 | 46 | 1123.0 |
| 20260506161507 | 80 | 226 | 0.0 | 0.9 | 0.00 | 0.00 | 0.00 | 46 | 1123.0 |
| 20260506161003 | 79 | 264 | 1.7 | 2.6 | 0.00 | 0.00 | 0.00 | 47 | 1123.0 |
| 20260506160501 | 80 | 218 | 0.9 | 2.6 | 0.00 | 0.00 | 0.00 | 45 | 1122.9 |
| 20260506155958 | 80 | 271 | 0.9 | 0.9 | 0.00 | 0.00 | 0.00 | 47 | 1123.1 |
| 20260506155456 | 78 | 215 | 0.9 | 2.6 | 0.00 | 0.00 | 0.00 | 48 | 1123.1 |
| 20260506153622 | 77 | 66 | 0.9 | 1.7 | 0.00 | 0.00 | 0.00 | 52 | 1123.2 |
| 20260506153120 | 76 | 170 | 0.9 | 1.7 | 0.00 | 0.00 | 0.00 | 52 | 1123.0 |
| 20260506152617 | 76 | 263 | 0.9 | 4.3 | 0.00 | 0.00 | 0.00 | 52 | 1123.1 |
| 20260506152115 | 74 | 233 | 0.0 | 0.9 | 0.00 | 0.00 | 0.00 | 53 | 1123.0 |
| 20260506151613 | 74 | 212 | 3.5 | 4.3 | 0.00 | 0.00 | 0.00 | 54 | 1122.9 |
| 20260506151109 | 75 | 183 | 1.7 | 2.6 | 0.00 | 0.00 | 0.00 | 52 | 1123.1 |
| 20260506150606 | 75 | 251 | 0.9 | 2.6 | 0.00 | 0.00 | 0.00 | 54 | 1123.0 |
| 20260506145559 | 77 | 325 | 0.9 | 1.7 | 0.00 | 0.00 | 0.00 | 49 | 1123.1 |
| 20260506145057 | 75 | 292 | 0.9 | 2.6 | 0.00 | 0.00 | 0.00 | 53 | 1122.8 |
| 20260506144554 | 75 | 266 | 0.0 | 0.9 | 0.00 | 0.00 | 0.00 | 51 | 1123.0 |
| 20260506144051 | 74 | 273 | 0.0 | 0.9 | 0.00 | 0.00 | 0.00 | 52 | 1122.8 |
| 20260506143548 | 74 | 320 | 1.7 | 1.7 | 0.00 | 0.00 | 0.00 | 53 | 1123.0 |
| 20260506143047 | 73 | 274 | 0.9 | 0.9 | 0.00 | 0.00 | 0.00 | 51 | 1122.9 |
| 20260506142544 | 72 | 247 | 0.9 | 1.7 | 0.00 | 0.00 | 0.00 | 53 | 1122.9 |
| 20260506142042 | 71 | 257 | 0.0 | 0.9 | 0.00 | 0.00 | 0.00 | 55 | 1123.0 |
| 20260506141539 | 70 | 309 | 0.9 | 2.6 | 0.00 | 0.00 | 0.00 | 56 | 1123.2 |
| 20260506141038 | 70 | 266 | 0.9 | 2.6 | 0.00 | 0.00 | 0.00 | 56 | 1123.0 |
| 20260506140534 | 69 | 327 | 0.9 | 1.7 | 0.00 | 0.00 | 0.00 | 57 | 1123.1 |
| 20260506140032 | 69 | 270 | 0.9 | 1.7 | 0.00 | 0.00 | 0.00 | 56 | 1122.9 |
| 20260506135529 | 69 | 308 | 0.9 | 2.6 | 0.00 | 0.00 | 0.00 | 57 | 1122.8 |
| 20260506135025 | 68 | 353 | 1.7 | 2.6 | 0.00 | 0.00 | 0.00 | 59 | 1123.0 |
| 20260506134521 | 68 | 322 | 0.9 | 2.6 | 0.00 | 0.00 | 0.00 | 60 | 1122.9 |
| 20260506134017 | 67 | 276 | 0.9 | 0.9 | 0.00 | 0.00 | 0.00 | 59 | 1122.9 |
| 20260506133515 | 67 | 281 | 0.9 | 0.9 | 0.00 | 0.00 | 0.00 | 60 | 1123.0 |
| 20260506133012 | 65 | 277 | 0.9 | 0.9 | 0.00 | 0.00 | 0.00 | 62 | 1122.9 |
| 20260506132509 | 64 | 275 | 0.9 | 1.7 | 0.00 | 0.00 | 0.00 | 64 | 1122.8 |
| 20260506132006 | 63 | 261 | 0.0 | 0.9 | 0.00 | 0.00 | 0.00 | 64 | 1122.8 |
| 20260506131503 | 63 | 296 | 0.9 | 0.9 | 0.00 | 0.00 | 0.00 | 65 | 1122.6 |
| 20260506131000 | 62 | 330 | 1.7 | 2.6 | 0.00 | 0.00 | 0.00 | 66 | 1122.7 |
| 20260506130456 | 62 | 346 | 1.7 | 1.7 | 0.00 | 0.00 | 0.00 | 66 | 1122.8 |
| 20260506125954 | 62 | 313 | 0.0 | 1.7 | 0.00 | 0.00 | 0.00 | 67 | 1122.8 |
| 20260506125452 | 62 | 323 | 0.9 | 1.7 | 0.00 | 0.00 | 0.00 | 67 | 1122.9 |
| 20260506124949 | 61 | 301 | 1.7 | 4.3 | 0.00 | 0.00 | 0.00 | 67 | 1122.7 |
| 20260506124447 | 61 | 283 | 0.9 | 0.9 | 0.00 | 0.00 | 0.00 | 68 | 1122.6 |
| 20260506123945 | 60 | 307 | 1.7 | 1.7 | 0.00 | 0.00 | 0.00 | 69 | 1122.8 |
| 20260506123443 | 60 | 339 | 0.9 | 1.7 | 0.00 | 0.00 | 0.00 | 71 | 1122.8 |
| 20260506122940 | 60 | 344 | 0.9 | 1.7 | 0.00 | 0.00 | 0.00 | 72 | 1122.7 |
| 20260506122437 | 59 | 305 | 1.7 | 1.7 | 0.00 | 0.00 | 0.00 | 73 | 1122.5 |
| 20260506121935 | 59 | 267 | 0.0 | 0.9 | 0.00 | 0.00 | 0.00 | 74 | 1122.8 |
| 20260506121432 | 59 | 275 | 0.9 | 1.7 | 0.00 | 0.00 | 0.00 | 74 | 1122.6 |
| 20260506120929 | 59 | 266 | 0.0 | 0.9 | 0.00 | 0.00 | 0.00 | 74 | 1122.5 |
| 20260506120426 | 59 | 273 | 0.0 | 1.7 | 0.00 | 0.00 | 0.00 | 74 | 1122.4 |
| 20260506115923 | 59 | 280 | 0.9 | 1.7 | 0.00 | 0.00 | 0.00 | 73 | 1122.6 |
| 20260506115421 | 59 | 280 | 0.9 | 0.9 | 0.00 | 0.00 | 0.00 | 73 | 1122.1 |
| 20260506114920 | 59 | 277 | 0.9 | 1.7 | 0.00 | 0.00 | 0.00 | 73 | 1122.5 |
| 20260506114417 | 59 | 286 | 0.9 | 1.7 | 0.00 | 0.00 | 0.00 | 72 | 1122.2 |
| 20260506113915 | 59 | 269 | 0.0 | 0.9 | 0.00 | 0.00 | 0.00 | 72 | 1122.2 |
| 20260506113412 | 59 | 277 | 0.0 | 1.7 | 0.00 | 0.00 | 0.00 | 72 | 1122.1 |
| 20260506112909 | 59 | 267 | 0.0 | 0.9 | 0.00 | 0.00 | 0.00 | 71 | 1122.2 |
| 20260506112407 | 59 | 265 | 0.0 | 0.9 | 0.00 | 0.00 | 0.00 | 71 | 1122.0 |
| 20260506111904 | 60 | 272 | 0.0 | 0.9 | 0.00 | 0.00 | 0.00 | 71 | 1122.1 |
| 20260506111402 | 60 | 283 | 0.0 | 0.9 | 0.00 | 0.00 | 0.00 | 71 | 1122.4 |
| 20260506110859 | 60 | 308 | 0.9 | 1.7 | 0.00 | 0.00 | 0.00 | 71 | 1122.1 |
| 20260506110356 | 60 | 273 | 0.0 | 0.9 | 0.00 | 0.00 | 0.00 | 71 | 1122.2 |
| 20260506105853 | 60 | 277 | 0.0 | 0.9 | 0.00 | 0.00 | 0.00 | 71 | 1121.9 |
| 20260506105349 | 60 | 267 | 0.0 | 0.9 | 0.00 | 0.00 | 0.00 | 71 | 1122.1 |
| 20260506104847 | 60 | 270 | 0.9 | 0.9 | 0.00 | 0.00 | 0.00 | 72 | 1122.0 |
| 20260506104344 | 60 | 263 | 0.0 | 0.9 | 0.00 | 0.00 | 0.00 | 72 | 1121.9 |
| 20260506103842 | 60 | 264 | 0.0 | 0.9 | 0.00 | 0.00 | 0.00 | 72 | 1121.8 |
| 20260506103339 | 60 | 264 | 0.0 | 0.9 | 0.00 | 0.00 | 0.00 | 72 | 1121.9 |
| 20260506102836 | 60 | 263 | 0.0 | 0.9 | 0.00 | 0.00 | 0.00 | 72 | 1122.2 |
| 20260506102334 | 60 | 263 | 0.0 | 0.9 | 0.00 | 0.00 | 0.00 | 72 | 1121.6 |
| 20260506101831 | 60 | 269 | 0.0 | 0.9 | 0.00 | 0.00 | 0.00 | 72 | 1121.5 |
| 20260506101327 | 60 | 270 | 0.9 | 0.9 | 0.00 | 0.00 | 0.00 | 72 | 1121.8 |
| 20260506100825 | 60 | 270 | 0.0 | 1.7 | 0.00 | 0.00 | 0.00 | 72 | 1121.8 |
| 20260506100323 | 61 | 261 | 0.0 | 0.9 | 0.00 | 0.00 | 0.00 | 72 | 1121.9 |
| 20260506095822 | 61 | 260 | 0.0 | 0.9 | 0.00 | 0.00 | 0.00 | 72 | 1121.8 |
| 20260506095318 | 61 | 278 | 0.0 | 0.9 | 0.00 | 0.00 | 0.00 | 74 | 1121.6 |
| 20260506094815 | 61 | 277 | 0.9 | 1.7 | 0.00 | 0.00 | 0.00 | 74 | 1121.8 |
| 20260506094314 | 62 | 276 | 0.9 | 1.7 | 0.00 | 0.00 | 0.00 | 73 | 1121.8 |
| 20260506093812 | 62 | 297 | 0.9 | 1.7 | 0.00 | 0.00 | 0.00 | 72 | 1121.8 |
| 20260506093308 | 62 | 271 | 0.9 | 1.7 | 0.00 | 0.00 | 0.00 | 71 | 1121.8 |
| 20260506092806 | 62 | 274 | 0.9 | 1.7 | 0.00 | 0.00 | 0.00 | 71 | 1121.8 |
| 20260506092306 | 62 | 269 | 0.0 | 0.9 | 0.00 | 0.00 | 0.00 | 70 | 1122.0 |
| 20260506091801 | 62 | 258 | 0.0 | 0.9 | 0.00 | 0.00 | 0.00 | 69 | 1121.9 |
| 20260506091258 | 62 | 285 | 0.9 | 0.9 | 0.00 | 0.00 | 0.00 | 69 | 1121.8 |
| 20260506090756 | 62 | 277 | 0.9 | 0.9 | 0.00 | 0.00 | 0.00 | 69 | 1121.7 |
| 20260506090253 | 62 | 269 | 0.0 | 1.7 | 0.00 | 0.00 | 0.00 | 69 | 1121.8 |
| 20260506085749 | 63 | 270 | 0.0 | 1.7 | 0.00 | 0.00 | 0.00 | 68 | 1122.0 |
| 20260506085246 | 63 | 273 | 0.9 | 1.7 | 0.00 | 0.00 | 0.00 | 68 | 1121.8 |
| 20260506084742 | 63 | 270 | 0.0 | 0.9 | 0.00 | 0.00 | 0.00 | 68 | 1121.7 |
| 20260506084239 | 63 | 278 | 0.9 | 1.7 | 0.00 | 0.00 | 0.00 | 67 | 1121.8 |
| 20260506083736 | 63 | 265 | 0.9 | 1.7 | 0.00 | 0.00 | 0.00 | 67 | 1121.7 |
| 20260506083234 | 63 | 269 | 0.9 | 1.7 | 0.00 | 0.00 | 0.00 | 66 | 1122.0 |
| 20260506082731 | 64 | 268 | 0.9 | 1.7 | 0.00 | 0.00 | 0.00 | 65 | 1122.0 |
| 20260506082226 | 64 | 266 | 0.0 | 0.9 | 0.00 | 0.00 | 0.00 | 65 | 1122.2 |
| 20260506081724 | 64 | 282 | 0.9 | 1.7 | 0.00 | 0.00 | 0.00 | 64 | 1122.0 |
| 20260506081221 | 64 | 276 | 0.9 | 1.7 | 0.00 | 0.00 | 0.00 | 64 | 1121.9 |
| 20260506080719 | 65 | 274 | 0.9 | 1.7 | 0.00 | 0.00 | 0.00 | 64 | 1121.9 |
| 20260506080215 | 64 | 264 | 0.0 | 0.9 | 0.00 | 0.00 | 0.00 | 64 | 1122.1 |
| 20260506073159 | 65 | 262 | 0.9 | 0.9 | 0.00 | 0.00 | 0.00 | 64 | 1122.0 |